When you browse on this site, cookies collect data to enhance your experience and personalize the content and advertising you see.
Visit our Privacy Policy to learn more. By continuing to use the site, you agree to this use of cookies and data.
  • In Romania
  • List of Countries
  • For 7 days
  • Water Temperature
  • Satellite Maps
  • Weather Map
  • Weather Widgets
  • user-avatar
    Login

    Hourly Weather Raevka

    Today, 22 July, Monday

    Time Temperature Precipitation Wind Pressure Humidity
    00:00 +16°C° 0 mm 2 mps 747 mmHg 92%
    01:00 +16°C° 0 mm 2 mps 747 mmHg 93%
    02:00 +15°C° 0 mm 2 mps 746 mmHg 94%
    03:00 +15°C° 0 mm 2 mps 746 mmHg 94%
    04:00 +14°C° 0 mm 3 mps 746 mmHg 96%
    05:00 +14°C° 0 mm 3 mps 746 mmHg 94%
    06:00 +16°C° 0 mm 3 mps 747 mmHg 93%
    07:00 +17°C° 0 mm 3 mps 747 mmHg 91%
    08:00 +18°C° 0.2 mm 4 mps 747 mmHg 88%
    09:00 +19°C° 0.2 mm 4 mps 746 mmHg 85%
    10:00 +20°C° 0 mm 4 mps 746 mmHg 81%
    11:00 +21°C° 0.4 mm 4 mps 746 mmHg 79%
    12:00 +21°C° 0.4 mm 4 mps 746 mmHg 77%
    13:00 +22°C° 0.4 mm 4 mps 746 mmHg 75%
    14:00 +22°C° 0.2 mm 4 mps 745 mmHg 74%
    15:00 +22°C° 0.2 mm 4 mps 745 mmHg 73%
    16:00 +22°C° 0.2 mm 4 mps 745 mmHg 72%
    17:00 +22°C° 0.1 mm 3 mps 745 mmHg 76%
    18:00 +21°C° 0.1 mm 3 mps 745 mmHg 80%
    19:00 +20°C° 0.1 mm 2 mps 745 mmHg 84%
    20:00 +19°C° 0.1 mm 2 mps 745 mmHg 87%
    21:00 +18°C° 0.1 mm 2 mps 745 mmHg 89%
    22:00 +16°C° 0.1 mm 2 mps 744 mmHg 92%
    23:00 +16°C° 0 mm 2 mps 744 mmHg 93%

    Tomorrow, 23 July, Tuesday

    Time Temperature Precipitation Wind Pressure Humidity
    00:00 +15°C° 0 mm 2 mps 744 mmHg 94%
    01:00 +14°C° 0 mm 3 mps 744 mmHg 95%
    02:00 +14°C° 0 mm 2 mps 744 mmHg 96%
    03:00 +14°C° 0 mm 2 mps 744 mmHg 96%
    04:00 +14°C° 0 mm 2 mps 744 mmHg 97%
    05:00 +14°C° 0 mm 2 mps 744 mmHg 96%
    06:00 +15°C° 0 mm 2 mps 744 mmHg 95%
    07:00 +16°C° 0 mm 2 mps 744 mmHg 94%
    08:00 +17°C° 0.1 mm 3 mps 745 mmHg 91%
    09:00 +18°C° 0.1 mm 3 mps 745 mmHg 87%
    10:00 +19°C° 0.1 mm 4 mps 745 mmHg 84%
    11:00 +20°C° 0.3 mm 4 mps 745 mmHg 80%
    12:00 +21°C° 0.3 mm 4 mps 745 mmHg 76%
    13:00 +22°C° 0.3 mm 4 mps 745 mmHg 73%
    14:00 +22°C° 0.4 mm 4 mps 745 mmHg 74%
    15:00 +22°C° 0.4 mm 4 mps 745 mmHg 76%
    16:00 +22°C° 0.4 mm 4 mps 745 mmHg 77%
    17:00 +21°C° 0.2 mm 4 mps 746 mmHg 81%
    18:00 +21°C° 0.2 mm 4 mps 746 mmHg 84%
    19:00 +20°C° 0.2 mm 3 mps 746 mmHg 87%
    20:00 +19°C° 0.3 mm 3 mps 746 mmHg 90%
    21:00 +18°C° 0.3 mm 3 mps 746 mmHg 92%
    22:00 +17°C° 0.3 mm 3 mps 746 mmHg 94%
    23:00 +16°C° 0 mm 3 mps 746 mmHg 95%

    Day after tomorrow, 24 July, Wednesday

    Time Temperature Precipitation Wind Pressure Humidity
    00:00 +16°C° 0 mm 2 mps 747 mmHg 95%
    01:00 +15°C° 0 mm 2 mps 747 mmHg 96%
    02:00 +15°C° 0 mm 2 mps 747 mmHg 96%
    03:00 +15°C° 0 mm 2 mps 747 mmHg 96%
    04:00 +15°C° 0 mm 2 mps 747 mmHg 96%
    05:00 +16°C° 0 mm 2 mps 748 mmHg 94%
    06:00 +17°C° 0 mm 2 mps 748 mmHg 92%
    07:00 +18°C° 0 mm 3 mps 748 mmHg 91%
    08:00 +19°C° 0 mm 3 mps 748 mmHg 85%
    09:00 +21°C° 0 mm 3 mps 748 mmHg 80%
    10:00 +22°C° 0 mm 3 mps 748 mmHg 75%
    11:00 +24°C° 0.1 mm 3 mps 748 mmHg 72%
    12:00 +25°C° 0.1 mm 4 mps 749 mmHg 70%
    13:00 +25°C° 0.1 mm 4 mps 749 mmHg 68%
    14:00 +25°C° 0.2 mm 4 mps 749 mmHg 69%
    15:00 +25°C° 0.2 mm 4 mps 749 mmHg 70%
    16:00 +25°C° 0.2 mm 4 mps 749 mmHg 71%
    17:00 +25°C° 0.2 mm 3 mps 749 mmHg 75%
    18:00 +24°C° 0.2 mm 3 mps 749 mmHg 78%
    19:00 +23°C° 0.2 mm 2 mps 749 mmHg 81%
    20:00 +21°C° 0 mm 2 mps 749 mmHg 82%
    21:00 +20°C° 0 mm 2 mps 749 mmHg 84%
    22:00 +19°C° 0 mm 2 mps 749 mmHg 85%
    23:00 +18°C° 0 mm 2 mps 750 mmHg 86%

    25 July, Thursday

    Time Temperature Precipitation Wind Pressure Humidity
    00:00 +18°C° 0 mm 2 mps 750 mmHg 87%
    01:00 +17°C° 0 mm 2 mps 750 mmHg 87%
    02:00 +17°C° 0 mm 2 mps 750 mmHg 88%
    03:00 +16°C° 0 mm 1 mps 750 mmHg 88%
    04:00 +16°C° 0 mm 1 mps 750 mmHg 88%
    05:00 +18°C° 0 mm 1 mps 750 mmHg 86%
    06:00 +19°C° 0 mm 1 mps 751 mmHg 84%
    07:00 +21°C° 0 mm 1 mps 751 mmHg 82%
    08:00 +22°C° 0 mm 1 mps 751 mmHg 77%
    09:00 +24°C° 0 mm 1 mps 751 mmHg 72%
    10:00 +25°C° 0 mm 1 mps 751 mmHg 68%
    11:00 +26°C° 0 mm 1 mps 751 mmHg 64%
    12:00 +27°C° 0 mm 2 mps 751 mmHg 61%
    13:00 +27°C° 0 mm 2 mps 751 mmHg 57%
    14:00 +28°C° 0 mm 2 mps 751 mmHg 57%
    15:00 +28°C° 0 mm 2 mps 751 mmHg 57%
    16:00 +28°C° 0 mm 2 mps 751 mmHg 57%
    17:00 +27°C° 0 mm 2 mps 751 mmHg 63%
    18:00 +26°C° 0 mm 2 mps 750 mmHg 69%
    19:00 +25°C° 0 mm 2 mps 750 mmHg 75%
    20:00 +23°C° 0 mm 2 mps 750 mmHg 75%
    21:00 +21°C° 0 mm 2 mps 750 mmHg 76%
    22:00 +19°C° 0 mm 2 mps 751 mmHg 77%
    23:00 +19°C° 0 mm 2 mps 751 mmHg 78%

    26 July, Friday

    Time Temperature Precipitation Wind Pressure Humidity
    00:00 +18°C° 0 mm 2 mps 751 mmHg 80%
    01:00 +18°C° 0 mm 2 mps 751 mmHg 82%
    02:00 +17°C° 0 mm 2 mps 751 mmHg 82%
    03:00 +17°C° 0 mm 2 mps 750 mmHg 83%
    04:00 +17°C° 0 mm 2 mps 750 mmHg 83%
    05:00 +19°C° 0 mm 1 mps 750 mmHg 81%
    06:00 +20°C° 0 mm 1 mps 750 mmHg 79%
    07:00 +21°C° 0 mm 1 mps 750 mmHg 76%
    08:00 +22°C° 0 mm 1 mps 750 mmHg 72%
    09:00 +24°C° 0 mm 1 mps 750 mmHg 68%
    10:00 +25°C° 0 mm 1 mps 750 mmHg 63%
    11:00 +26°C° 0 mm 1 mps 750 mmHg 61%
    12:00 +26°C° 0 mm 1 mps 750 mmHg 59%
    13:00 +27°C° 0 mm 1 mps 750 mmHg 56%
    14:00 +27°C° 0 mm 1 mps 749 mmHg 56%
    15:00 +27°C° 0 mm 2 mps 749 mmHg 56%
    16:00 +28°C° 0 mm 2 mps 749 mmHg 56%
    17:00 +27°C° 0 mm 2 mps 749 mmHg 61%
    18:00 +26°C° 0 mm 2 mps 749 mmHg 67%
    19:00 +25°C° 0 mm 2 mps 748 mmHg 72%
    20:00 +23°C° 0 mm 1 mps 748 mmHg 74%
    21:00 +22°C° 0 mm 1 mps 748 mmHg 75%
    22:00 +20°C° 0 mm 1 mps 748 mmHg 76%
    23:00 +19°C° 0 mm 1 mps 748 mmHg 78%

    27 July, Saturday

    Time Temperature Precipitation Wind Pressure Humidity
    00:00 +19°C° 0 mm 1 mps 748 mmHg 79%
    01:00 +16°C° 0 mm 0 mps 748 mmHg 81%
    02:00 +16°C° 0 mm 0 mps 747 mmHg 82%
    03:00 +16°C° 0 mm 0 mps 747 mmHg 83%
    04:00 +15°C° 0 mm 0 mps 747 mmHg 84%
    05:00 +17°C° 0 mm 0 mps 747 mmHg 82%
    06:00 +18°C° 0 mm 0 mps 747 mmHg 80%
    07:00 +19°C° 0 mm 0 mps 747 mmHg 78%
    08:00 +21°C° 0.1 mm 0 mps 747 mmHg 75%
    09:00 +24°C° 0.1 mm 1 mps 746 mmHg 71%
    10:00 +25°C° 0.1 mm 1 mps 746 mmHg 68%
    11:00 +26°C° 0.1 mm 2 mps 746 mmHg 65%
    12:00 +26°C° 0.1 mm 2 mps 745 mmHg 62%
    13:00 +27°C° 0.1 mm 2 mps 745 mmHg 59%
    14:00 +27°C° 0.1 mm 3 mps 744 mmHg 61%
    15:00 +27°C° 0.1 mm 3 mps 744 mmHg 62%
    16:00 +27°C° 0.1 mm 3 mps 743 mmHg 63%
    17:00 +26°C° 0.3 mm 3 mps 743 mmHg 68%
    18:00 +25°C° 0.3 mm 2 mps 743 mmHg 72%
    19:00 +24°C° 0.3 mm 2 mps 742 mmHg 77%
    20:00 +23°C° 0.1 mm 2 mps 742 mmHg 79%
    21:00 +21°C° 0.1 mm 2 mps 741 mmHg 82%
    22:00 +19°C° 0.1 mm 2 mps 741 mmHg 84%
    23:00 +19°C° 0.1 mm 2 mps 740 mmHg 85%
    Show more